Powrót do katalogu

THORAD AGENA D DEB

AktywnySSO
NORAD 4773·DEBRIS·🇺🇸 United States

Wystrzelony Apr 8, 1970 z Vandenberg Space Force Base

Loading…

Następne Przeloty

TLE

Source: Space-Track
1 04773U 70025DT  26228.39207314  .00000015  00000-0  85662-4 0  9991
2 04773 100.0229 281.1999 0032266 105.0406 268.4411 13.57124897776262

Śledź THORAD AGENA D DEB w czasie rzeczywistym z AllMySat

Download on the App Store